Year,Month,Day,Hour,Minute,Value (Times are PST for temperature in C)
2017,06,24,00,00,15.20
2017,06,24,00,01,15.20
2017,06,24,00,02,15.10
2017,06,24,00,03,15.10
2017,06,24,00,04,15.10
2017,06,24,00,05,15.10
2017,06,24,00,06,15.10
2017,06,24,00,07,15.00
2017,06,24,00,08,15.00
2017,06,24,00,09,15.00
2017,06,24,00,10,15.00
2017,06,24,00,11,14.90
2017,06,24,00,12,14.90
2017,06,24,00,13,14.90
2017,06,24,00,14,14.90
2017,06,24,00,15,14.90
2017,06,24,00,16,14.90
2017,06,24,00,17,14.90
2017,06,24,00,18,14.90
2017,06,24,00,19,14.90
2017,06,24,00,20,14.80
2017,06,24,00,21,14.80
2017,06,24,00,22,14.80
2017,06,24,00,23,14.80
2017,06,24,00,24,14.80
2017,06,24,00,25,14.80
2017,06,24,00,26,14.80
2017,06,24,00,27,14.80
2017,06,24,00,28,14.80
2017,06,24,00,29,14.80
2017,06,24,00,30,14.80
2017,06,24,00,31,14.80
2017,06,24,00,32,14.80
2017,06,24,00,33,14.70
2017,06,24,00,34,14.70
2017,06,24,00,35,14.70
2017,06,24,00,36,14.70
2017,06,24,00,37,14.70
2017,06,24,00,38,14.70
2017,06,24,00,39,14.70
2017,06,24,00,40,14.70
2017,06,24,00,41,14.70
2017,06,24,00,42,14.60
2017,06,24,00,43,14.60
2017,06,24,00,44,14.60
2017,06,24,00,45,14.60
2017,06,24,00,46,14.60
2017,06,24,00,47,14.60
2017,06,24,00,48,14.60
2017,06,24,00,49,14.60
2017,06,24,00,50,14.60
2017,06,24,00,51,14.60
2017,06,24,00,52,14.60
2017,06,24,00,53,14.60
2017,06,24,00,54,14.50
2017,06,24,00,55,14.50
2017,06,24,00,56,14.50
2017,06,24,00,57,14.40
2017,06,24,00,58,14.40
2017,06,24,00,59,14.40
2017,06,24,01,00,14.40
2017,06,24,01,01,14.40
2017,06,24,01,02,14.40
2017,06,24,01,03,14.30
2017,06,24,01,04,14.30
2017,06,24,01,05,14.30
2017,06,24,01,06,14.30
2017,06,24,01,07,14.30
2017,06,24,01,08,14.20
2017,06,24,01,09,14.20
2017,06,24,01,10,14.20
2017,06,24,01,11,14.10
2017,06,24,01,12,14.10
2017,06,24,01,13,14.10
2017,06,24,01,14,14.10
2017,06,24,01,15,14.00
2017,06,24,01,16,14.00
2017,06,24,01,17,14.00
2017,06,24,01,18,13.90
2017,06,24,01,19,13.90
2017,06,24,01,20,13.90
2017,06,24,01,21,13.90
2017,06,24,01,22,13.90
2017,06,24,01,23,13.80
2017,06,24,01,24,13.80
2017,06,24,01,25,13.80
2017,06,24,01,26,13.80
2017,06,24,01,27,13.80
2017,06,24,01,28,13.70
2017,06,24,01,29,13.70
2017,06,24,01,30,13.70
2017,06,24,01,31,13.70
2017,06,24,01,32,13.70
2017,06,24,01,33,13.70
2017,06,24,01,34,13.70
2017,06,24,01,35,13.60
2017,06,24,01,36,13.60
2017,06,24,01,37,13.60
2017,06,24,01,38,13.60
2017,06,24,01,39,13.60
2017,06,24,01,40,13.60
2017,06,24,01,41,13.60
2017,06,24,01,42,13.60
2017,06,24,01,43,13.50
2017,06,24,01,44,13.60
2017,06,24,01,45,13.50
2017,06,24,01,46,13.50
2017,06,24,01,47,13.50
2017,06,24,01,48,13.50
2017,06,24,01,49,13.50
2017,06,24,01,50,13.50
2017,06,24,01,51,13.50
2017,06,24,01,52,13.50
2017,06,24,01,53,13.50
2017,06,24,01,54,13.50
2017,06,24,01,55,13.40
2017,06,24,01,56,13.40
2017,06,24,01,57,13.40
2017,06,24,01,58,13.40
2017,06,24,01,59,13.40
2017,06,24,02,00,13.40
2017,06,24,02,01,13.40
2017,06,24,02,02,13.40
2017,06,24,02,03,13.40
2017,06,24,02,04,13.40
2017,06,24,02,05,13.40
2017,06,24,02,06,13.40
2017,06,24,02,07,13.40
2017,06,24,02,08,13.40
2017,06,24,02,09,13.40
2017,06,24,02,10,13.40
2017,06,24,02,11,13.40
2017,06,24,02,12,13.40
2017,06,24,02,13,13.40
2017,06,24,02,14,13.30
2017,06,24,02,15,13.30
2017,06,24,02,16,13.30
2017,06,24,02,17,13.30
2017,06,24,02,18,13.30
2017,06,24,02,19,13.30
2017,06,24,02,20,13.30
2017,06,24,02,21,13.30
2017,06,24,02,22,13.30
2017,06,24,02,23,13.30
2017,06,24,02,24,13.30
2017,06,24,02,25,13.30
2017,06,24,02,26,13.30
2017,06,24,02,27,13.20
2017,06,24,02,28,13.20
2017,06,24,02,29,13.20
2017,06,24,02,30,13.20
2017,06,24,02,31,13.20
2017,06,24,02,32,13.30
2017,06,24,02,33,13.30
2017,06,24,02,34,13.30
2017,06,24,02,35,13.30
2017,06,24,02,36,13.30
2017,06,24,02,37,13.30
2017,06,24,02,38,13.30
2017,06,24,02,39,13.30
2017,06,24,02,40,13.30
2017,06,24,02,41,13.30
2017,06,24,02,42,13.30
2017,06,24,02,43,13.30
2017,06,24,02,44,13.30
2017,06,24,02,45,13.30
2017,06,24,02,46,13.30
2017,06,24,02,47,13.30
2017,06,24,02,48,13.30
2017,06,24,02,49,13.30
2017,06,24,02,50,13.30
2017,06,24,02,51,13.30
2017,06,24,02,52,13.30
2017,06,24,02,53,13.30
2017,06,24,02,54,13.30
2017,06,24,02,55,13.30
2017,06,24,02,56,13.30
2017,06,24,02,57,13.30
2017,06,24,02,58,13.30
2017,06,24,02,59,13.30
2017,06,24,03,00,13.30
2017,06,24,03,01,13.30
2017,06,24,03,02,13.30
2017,06,24,03,03,13.30
2017,06,24,03,04,13.30
2017,06,24,03,05,13.30
2017,06,24,03,06,13.30
2017,06,24,03,07,13.30
2017,06,24,03,08,13.30
2017,06,24,03,09,13.20
2017,06,24,03,10,13.20
2017,06,24,03,11,13.20
2017,06,24,03,12,13.20
2017,06,24,03,13,13.20
2017,06,24,03,14,13.20
2017,06,24,03,15,13.20
2017,06,24,03,16,13.20
2017,06,24,03,17,13.20
2017,06,24,03,18,13.20
2017,06,24,03,19,13.20
2017,06,24,03,20,13.20
2017,06,24,03,21,13.20
2017,06,24,03,22,13.20
2017,06,24,03,23,13.20
2017,06,24,03,24,13.20
2017,06,24,03,25,13.20
2017,06,24,03,26,13.20
2017,06,24,03,27,13.20
2017,06,24,03,28,13.20
2017,06,24,03,29,13.20
2017,06,24,03,30,13.20
2017,06,24,03,31,13.20
2017,06,24,03,32,13.10
2017,06,24,03,33,13.10
2017,06,24,03,34,13.10
2017,06,24,03,35,13.10
2017,06,24,03,36,13.10
2017,06,24,03,37,13.10
2017,06,24,03,38,13.10
2017,06,24,03,39,13.10
2017,06,24,03,40,13.10
2017,06,24,03,41,13.10
2017,06,24,03,42,13.10
2017,06,24,03,43,13.10
2017,06,24,03,44,13.10
2017,06,24,03,45,13.10
2017,06,24,03,46,13.10
2017,06,24,03,47,13.10
2017,06,24,03,48,13.10
2017,06,24,03,49,13.00
2017,06,24,03,50,13.00
2017,06,24,03,51,13.00
2017,06,24,03,52,13.00
2017,06,24,03,53,13.00
2017,06,24,03,54,13.00
2017,06,24,03,55,13.00
2017,06,24,03,56,12.90
2017,06,24,03,57,12.90
2017,06,24,03,58,12.90
2017,06,24,03,59,12.90
2017,06,24,04,00,12.90
2017,06,24,04,01,12.90
2017,06,24,04,02,12.90
2017,06,24,04,03,12.90
2017,06,24,04,04,12.90
2017,06,24,04,05,12.90
2017,06,24,04,06,12.90
2017,06,24,04,07,12.90
2017,06,24,04,08,12.90
2017,06,24,04,09,12.90
2017,06,24,04,10,12.90
2017,06,24,04,11,12.90
2017,06,24,04,12,12.90
2017,06,24,04,13,12.90
2017,06,24,04,14,12.90
2017,06,24,04,15,12.90
2017,06,24,04,16,12.90
2017,06,24,04,17,12.90
2017,06,24,04,18,12.90
2017,06,24,04,19,12.80
2017,06,24,04,20,12.80
2017,06,24,04,21,12.80
2017,06,24,04,22,12.80
2017,06,24,04,23,12.80
2017,06,24,04,24,12.80
2017,06,24,04,25,12.80
2017,06,24,04,26,12.70
2017,06,24,04,27,12.70
2017,06,24,04,28,12.70
2017,06,24,04,29,12.70
2017,06,24,04,30,12.70
2017,06,24,04,31,12.70
2017,06,24,04,32,12.60
2017,06,24,04,33,12.60
2017,06,24,04,34,12.60
2017,06,24,04,35,12.60
2017,06,24,04,36,12.60
2017,06,24,04,37,12.50
2017,06,24,04,38,12.50
2017,06,24,04,39,12.50
2017,06,24,04,40,12.50
2017,06,24,04,41,12.40
2017,06,24,04,42,12.40
2017,06,24,04,43,12.40
2017,06,24,04,44,12.40
2017,06,24,04,45,12.40
2017,06,24,04,46,12.40
2017,06,24,04,47,12.40
2017,06,24,04,48,12.40
2017,06,24,04,49,12.30
2017,06,24,04,50,12.30
2017,06,24,04,51,12.30
2017,06,24,04,52,12.30
2017,06,24,04,53,12.30
2017,06,24,04,54,12.30
2017,06,24,04,55,12.30
2017,06,24,04,56,12.30
2017,06,24,04,57,12.30
2017,06,24,04,58,12.30
2017,06,24,04,59,12.30
2017,06,24,05,00,12.30
2017,06,24,05,01,12.30
2017,06,24,05,02,12.30
2017,06,24,05,03,12.30
2017,06,24,05,04,12.30
2017,06,24,05,05,12.30
2017,06,24,05,06,12.30
2017,06,24,05,07,12.20
2017,06,24,05,08,12.20
2017,06,24,05,09,12.20
2017,06,24,05,10,12.20
2017,06,24,05,11,12.20
2017,06,24,05,12,12.20
2017,06,24,05,13,12.20
2017,06,24,05,14,12.20
2017,06,24,05,15,12.20
2017,06,24,05,16,12.20
2017,06,24,05,17,12.20
2017,06,24,05,18,12.20
2017,06,24,05,19,12.20
2017,06,24,05,20,12.20
2017,06,24,05,21,12.20
2017,06,24,05,22,12.20
2017,06,24,05,23,12.20
2017,06,24,05,24,12.20
2017,06,24,05,25,12.20
2017,06,24,05,26,12.20
2017,06,24,05,27,12.20
2017,06,24,05,28,12.20
2017,06,24,05,29,12.30
2017,06,24,05,30,12.30
2017,06,24,05,31,12.30
2017,06,24,05,32,12.30
2017,06,24,05,33,12.30
2017,06,24,05,34,12.30
2017,06,24,05,35,12.30
2017,06,24,05,36,12.30
2017,06,24,05,37,12.40
2017,06,24,05,38,12.40
2017,06,24,05,39,12.40
2017,06,24,05,40,12.40
2017,06,24,05,41,12.40
2017,06,24,05,42,12.40
2017,06,24,05,43,12.40
2017,06,24,05,44,12.40
2017,06,24,05,45,12.40
2017,06,24,05,46,12.30
2017,06,24,05,47,12.30
2017,06,24,05,48,12.30
2017,06,24,05,49,12.30
2017,06,24,05,50,12.30
2017,06,24,05,51,12.30
2017,06,24,05,52,12.30
2017,06,24,05,53,12.30
2017,06,24,05,54,12.30
2017,06,24,05,55,12.30
2017,06,24,05,56,12.30
2017,06,24,05,57,12.30
2017,06,24,05,58,12.30
2017,06,24,05,59,12.30
2017,06,24,06,00,12.30
2017,06,24,06,01,12.30
2017,06,24,06,02,12.30
2017,06,24,06,03,12.30
2017,06,24,06,04,12.30
2017,06,24,06,05,12.30
2017,06,24,06,06,12.30
2017,06,24,06,07,12.30
2017,06,24,06,08,12.30
2017,06,24,06,09,12.30
2017,06,24,06,10,12.40
2017,06,24,06,11,12.40
2017,06,24,06,12,12.40
2017,06,24,06,13,12.40
2017,06,24,06,14,12.50
2017,06,24,06,15,12.50
2017,06,24,06,16,12.60
2017,06,24,06,17,12.60
2017,06,24,06,18,12.70
2017,06,24,06,19,12.70
2017,06,24,06,20,12.70
2017,06,24,06,21,12.70
2017,06,24,06,22,12.80
2017,06,24,06,23,12.80
2017,06,24,06,24,12.80
2017,06,24,06,25,12.90
2017,06,24,06,26,12.90
2017,06,24,06,27,12.90
2017,06,24,06,28,13.00
2017,06,24,06,29,13.10
2017,06,24,06,30,13.10
2017,06,24,06,31,13.20
2017,06,24,06,32,13.30
2017,06,24,06,33,13.30
2017,06,24,06,34,13.40
2017,06,24,06,35,13.50
2017,06,24,06,36,13.60
2017,06,24,06,37,13.70
2017,06,24,06,38,13.80
2017,06,24,06,39,13.90
2017,06,24,06,40,14.00
2017,06,24,06,41,14.10
2017,06,24,06,42,14.20
2017,06,24,06,43,14.30
2017,06,24,06,44,14.40
2017,06,24,06,45,14.50
2017,06,24,06,46,14.60
2017,06,24,06,47,14.80
2017,06,24,06,48,14.90
2017,06,24,06,49,15.00
2017,06,24,06,50,15.10
2017,06,24,06,51,15.20
2017,06,24,06,52,15.30
2017,06,24,06,53,15.40
2017,06,24,06,54,15.50
2017,06,24,06,55,15.60
2017,06,24,06,56,15.70
2017,06,24,06,57,15.80
2017,06,24,06,58,15.90
2017,06,24,06,59,16.00
2017,06,24,07,00,16.10
2017,06,24,07,01,16.20
2017,06,24,07,02,16.30
2017,06,24,07,03,16.40
2017,06,24,07,04,16.50
2017,06,24,07,05,16.60
2017,06,24,07,06,16.70
2017,06,24,07,07,16.80
2017,06,24,07,08,16.90
2017,06,24,07,09,16.90
2017,06,24,07,10,17.00
2017,06,24,07,11,17.10
2017,06,24,07,12,17.20
2017,06,24,07,13,17.30
2017,06,24,07,14,17.40
2017,06,24,07,15,17.50
2017,06,24,07,16,17.60
2017,06,24,07,17,17.70
2017,06,24,07,18,17.70
2017,06,24,07,19,17.80
2017,06,24,07,20,17.80
2017,06,24,07,21,17.80
2017,06,24,07,22,17.70
2017,06,24,07,23,17.70
2017,06,24,07,24,17.60
2017,06,24,07,25,17.50
2017,06,24,07,26,17.50
2017,06,24,07,27,17.40
2017,06,24,07,28,17.40
2017,06,24,07,29,17.30
2017,06,24,07,30,17.30
2017,06,24,07,31,17.20
2017,06,24,07,32,17.20
2017,06,24,07,33,17.20
2017,06,24,07,34,17.20
2017,06,24,07,35,17.20
2017,06,24,07,36,17.20
2017,06,24,07,37,17.20
2017,06,24,07,38,17.30
2017,06,24,07,39,17.40
2017,06,24,07,40,17.40
2017,06,24,07,41,17.60
2017,06,24,07,42,17.70
2017,06,24,07,43,17.90
2017,06,24,07,44,18.00
2017,06,24,07,45,18.20
2017,06,24,07,46,18.30
2017,06,24,07,47,18.50
2017,06,24,07,48,18.60
2017,06,24,07,49,18.70
2017,06,24,07,50,18.90
2017,06,24,07,51,19.00
2017,06,24,07,52,19.10
2017,06,24,07,53,19.30
2017,06,24,07,54,19.40
2017,06,24,07,55,19.50
2017,06,24,07,56,19.60
2017,06,24,07,57,19.70
2017,06,24,07,58,19.80
2017,06,24,07,59,19.90
2017,06,24,08,00,20.00
2017,06,24,08,01,20.10
2017,06,24,08,02,20.20
2017,06,24,08,03,20.30
2017,06,24,08,04,20.30
2017,06,24,08,05,20.40
2017,06,24,08,06,20.40
2017,06,24,08,07,20.50
2017,06,24,08,08,20.60
2017,06,24,08,09,20.60
2017,06,24,08,10,20.70
2017,06,24,08,11,20.80
2017,06,24,08,12,20.80
2017,06,24,08,13,20.90
2017,06,24,08,14,20.90
2017,06,24,08,15,21.00
2017,06,24,08,16,21.00
2017,06,24,08,17,21.10
2017,06,24,08,18,21.10
2017,06,24,08,19,21.20
2017,06,24,08,20,21.20
2017,06,24,08,21,21.20
2017,06,24,08,22,21.20
2017,06,24,08,23,21.30
2017,06,24,08,24,21.30
2017,06,24,08,25,21.40
2017,06,24,08,26,21.40
2017,06,24,08,27,21.50
2017,06,24,08,28,21.50
2017,06,24,08,29,21.60
2017,06,24,08,30,21.60
2017,06,24,08,31,21.70
2017,06,24,08,32,21.70
2017,06,24,08,33,21.80
2017,06,24,08,34,21.80
2017,06,24,08,35,21.80
2017,06,24,08,36,21.90
2017,06,24,08,37,21.90
2017,06,24,08,38,21.90
2017,06,24,08,39,21.90
2017,06,24,08,40,22.00
2017,06,24,08,41,22.00
2017,06,24,08,42,22.00
2017,06,24,08,43,22.00
2017,06,24,08,44,22.10
2017,06,24,08,45,22.10
2017,06,24,08,46,22.20
2017,06,24,08,47,22.20
2017,06,24,08,48,22.20
2017,06,24,08,49,22.30
2017,06,24,08,50,22.30
2017,06,24,08,51,22.30
2017,06,24,08,52,22.30
2017,06,24,08,53,22.40
2017,06,24,08,54,22.40
2017,06,24,08,55,22.40
2017,06,24,08,56,22.40
2017,06,24,08,57,22.50
2017,06,24,08,58,22.50
2017,06,24,08,59,22.50
2017,06,24,09,00,22.50
2017,06,24,09,01,22.60
2017,06,24,09,02,22.60
2017,06,24,09,03,22.60
2017,06,24,09,04,22.60
2017,06,24,09,05,22.60
2017,06,24,09,06,22.60
2017,06,24,09,07,22.60
2017,06,24,09,08,22.70
2017,06,24,09,09,22.70
2017,06,24,09,10,22.70
2017,06,24,09,11,22.70
2017,06,24,09,12,22.70
2017,06,24,09,13,22.80
2017,06,24,09,14,22.80
2017,06,24,09,15,22.80
2017,06,24,09,16,22.80
2017,06,24,09,17,22.90
2017,06,24,09,18,22.90
2017,06,24,09,19,23.00
2017,06,24,09,20,23.00
2017,06,24,09,21,23.10
2017,06,24,09,22,23.10
2017,06,24,09,23,23.10
2017,06,24,09,24,23.10
2017,06,24,09,25,23.10
2017,06,24,09,26,23.10
2017,06,24,09,27,23.10
2017,06,24,09,28,23.20
2017,06,24,09,29,23.20
2017,06,24,09,30,23.20
2017,06,24,09,31,23.30
2017,06,24,09,32,23.30
2017,06,24,09,33,23.30
2017,06,24,09,34,23.40
2017,06,24,09,35,23.40
2017,06,24,09,36,23.40
2017,06,24,09,37,23.40
2017,06,24,09,38,23.50
2017,06,24,09,39,23.60
2017,06,24,09,40,23.60
2017,06,24,09,41,23.60
2017,06,24,09,42,23.70
2017,06,24,09,43,23.70
2017,06,24,09,44,23.70
2017,06,24,09,45,23.80
2017,06,24,09,46,23.80
2017,06,24,09,47,23.80
2017,06,24,09,48,23.90
2017,06,24,09,49,23.90
2017,06,24,09,50,24.00
2017,06,24,09,51,24.10
2017,06,24,09,52,24.10
2017,06,24,09,53,24.20
2017,06,24,09,54,24.20
2017,06,24,09,55,24.20
2017,06,24,09,56,24.20
2017,06,24,09,57,24.20
2017,06,24,09,58,24.20
2017,06,24,09,59,24.20
2017,06,24,10,00,24.20
2017,06,24,10,01,24.30
2017,06,24,10,02,24.30
2017,06,24,10,03,24.30
2017,06,24,10,04,24.30
2017,06,24,10,05,24.30
2017,06,24,10,06,24.30
2017,06,24,10,07,24.30
2017,06,24,10,08,24.30
2017,06,24,10,09,24.30
2017,06,24,10,10,24.20
2017,06,24,10,11,24.20
2017,06,24,10,12,24.20
2017,06,24,10,13,24.20
2017,06,24,10,14,24.30
2017,06,24,10,15,24.30
2017,06,24,10,16,24.30
2017,06,24,10,17,24.40
2017,06,24,10,18,24.40
2017,06,24,10,19,24.40
2017,06,24,10,20,24.40
2017,06,24,10,21,24.40
2017,06,24,10,22,24.50
2017,06,24,10,23,24.50
2017,06,24,10,24,24.60
2017,06,24,10,25,24.60
2017,06,24,10,26,24.60
2017,06,24,10,27,24.70
2017,06,24,10,28,24.70
2017,06,24,10,29,24.70
2017,06,24,10,30,24.80
2017,06,24,10,31,24.80
2017,06,24,10,32,24.80
2017,06,24,10,33,24.80
2017,06,24,10,34,24.80
2017,06,24,10,35,24.80
2017,06,24,10,36,24.80
2017,06,24,10,37,24.80
2017,06,24,10,38,24.80
2017,06,24,10,39,24.80
2017,06,24,10,40,24.80
2017,06,24,10,41,24.80
2017,06,24,10,42,24.80
2017,06,24,10,43,24.80
2017,06,24,10,44,24.80
2017,06,24,10,45,24.80
2017,06,24,10,46,24.80
2017,06,24,10,47,24.80
2017,06,24,10,48,24.90
2017,06,24,10,49,24.90
2017,06,24,10,50,24.90
2017,06,24,10,51,24.90
2017,06,24,10,52,24.90
2017,06,24,10,53,25.00
2017,06,24,10,54,25.00
2017,06,24,10,55,25.10
2017,06,24,10,56,25.10
2017,06,24,10,57,25.10
2017,06,24,10,58,25.10
2017,06,24,10,59,25.10
2017,06,24,11,00,25.10
2017,06,24,11,01,25.10
2017,06,24,11,02,25.10
2017,06,24,11,03,25.20
2017,06,24,11,04,25.40
2017,06,24,11,05,25.50
2017,06,24,11,06,25.50
2017,06,24,11,07,25.60
2017,06,24,11,08,25.60
2017,06,24,11,09,25.60
2017,06,24,11,10,25.60
2017,06,24,11,11,25.70
2017,06,24,11,12,25.70
2017,06,24,11,13,25.70
2017,06,24,11,14,25.70
2017,06,24,11,15,25.70
2017,06,24,11,16,25.70
2017,06,24,11,17,25.80
2017,06,24,11,18,25.80
2017,06,24,11,19,25.80
2017,06,24,11,20,25.80
2017,06,24,11,21,25.90
2017,06,24,11,22,25.90
2017,06,24,11,23,26.00
2017,06,24,11,24,26.00
2017,06,24,11,25,26.10
2017,06,24,11,26,26.10
2017,06,24,11,27,26.10
2017,06,24,11,28,26.10
2017,06,24,11,29,26.10
2017,06,24,11,30,26.10
2017,06,24,11,31,26.10
2017,06,24,11,32,26.10
2017,06,24,11,33,26.10
2017,06,24,11,34,26.10
2017,06,24,11,35,26.10
2017,06,24,11,36,26.10
2017,06,24,11,37,26.10
2017,06,24,11,38,26.10
2017,06,24,11,39,26.10
2017,06,24,11,40,26.10
2017,06,24,11,41,26.10
2017,06,24,11,42,26.10
2017,06,24,11,43,26.20
2017,06,24,11,44,26.20
2017,06,24,11,45,26.20
2017,06,24,11,46,26.20
2017,06,24,11,47,26.20
2017,06,24,11,48,26.20
2017,06,24,11,49,26.30
2017,06,24,11,50,26.40
2017,06,24,11,51,26.50
2017,06,24,11,52,26.60
2017,06,24,11,53,26.70
2017,06,24,11,54,26.70
2017,06,24,11,55,26.80
2017,06,24,11,56,26.90
2017,06,24,11,57,26.90
2017,06,24,11,58,27.00
2017,06,24,11,59,27.00
2017,06,24,12,00,27.10
2017,06,24,12,01,27.10
2017,06,24,12,02,27.10
2017,06,24,12,03,27.20
2017,06,24,12,04,27.20
2017,06,24,12,05,27.20
2017,06,24,12,06,27.20
2017,06,24,12,07,27.20
2017,06,24,12,08,27.20
2017,06,24,12,09,27.20
2017,06,24,12,10,27.20
2017,06,24,12,11,27.20
2017,06,24,12,12,27.30
2017,06,24,12,13,27.30
2017,06,24,12,14,27.30
2017,06,24,12,15,27.30
2017,06,24,12,16,27.40
2017,06,24,12,17,27.40
2017,06,24,12,18,27.40
2017,06,24,12,19,27.40
2017,06,24,12,20,27.40
2017,06,24,12,21,27.40
2017,06,24,12,22,27.40
2017,06,24,12,23,27.40
2017,06,24,12,24,27.40
2017,06,24,12,25,27.30
2017,06,24,12,26,27.30
2017,06,24,12,27,27.30
2017,06,24,12,28,27.20
2017,06,24,12,29,27.30
2017,06,24,12,30,27.30
2017,06,24,12,31,27.30
2017,06,24,12,32,27.30
2017,06,24,12,33,27.30
2017,06,24,12,34,27.30
2017,06,24,12,35,27.20
2017,06,24,12,36,27.20
2017,06,24,12,37,27.20
2017,06,24,12,38,27.20
2017,06,24,12,39,27.20
2017,06,24,12,40,27.20
2017,06,24,12,41,27.20
2017,06,24,12,42,27.20
2017,06,24,12,43,27.20
2017,06,24,12,44,27.20
2017,06,24,12,45,27.30
2017,06,24,12,46,27.30
2017,06,24,12,47,27.30
2017,06,24,12,48,27.30
2017,06,24,12,49,27.40
2017,06,24,12,50,27.40
2017,06,24,12,51,27.40
2017,06,24,12,52,27.40
2017,06,24,12,53,27.40
2017,06,24,12,54,27.30
2017,06,24,12,55,27.30
2017,06,24,12,56,27.30
2017,06,24,12,57,27.30
2017,06,24,12,58,27.30
2017,06,24,12,59,27.30
2017,06,24,13,00,27.30
2017,06,24,13,01,27.20
2017,06,24,13,02,27.20
2017,06,24,13,03,27.20
2017,06,24,13,04,27.20
2017,06,24,13,05,27.20
2017,06,24,13,06,27.30
2017,06,24,13,07,27.30
2017,06,24,13,08,27.20
2017,06,24,13,09,27.20
2017,06,24,13,10,27.20
2017,06,24,13,11,27.10
2017,06,24,13,12,27.10
2017,06,24,13,13,27.10
2017,06,24,13,14,27.10
2017,06,24,13,15,27.10
2017,06,24,13,16,27.10
2017,06,24,13,17,27.10
2017,06,24,13,18,27.10
2017,06,24,13,19,27.10
2017,06,24,13,20,27.10
2017,06,24,13,21,27.10
2017,06,24,13,22,27.10
2017,06,24,13,23,27.20
2017,06,24,13,24,27.20
2017,06,24,13,25,27.20
2017,06,24,13,26,27.20
2017,06,24,13,27,27.20
2017,06,24,13,28,27.10
2017,06,24,13,29,27.10
2017,06,24,13,30,27.10
2017,06,24,13,31,27.10
2017,06,24,13,32,27.10
2017,06,24,13,33,27.10
2017,06,24,13,34,27.10
2017,06,24,13,35,27.20
2017,06,24,13,36,27.20
2017,06,24,13,37,27.20
2017,06,24,13,38,27.30
2017,06,24,13,39,27.30
2017,06,24,13,40,27.30
2017,06,24,13,41,27.40
2017,06,24,13,42,27.40
2017,06,24,13,43,27.50
2017,06,24,13,44,27.50
2017,06,24,13,45,27.60
2017,06,24,13,46,27.60
2017,06,24,13,47,27.60
2017,06,24,13,48,27.60
2017,06,24,13,49,27.70
2017,06,24,13,50,27.70
2017,06,24,13,51,27.70
2017,06,24,13,52,27.70
2017,06,24,13,53,27.80
2017,06,24,13,54,27.90
2017,06,24,13,55,27.90
2017,06,24,13,56,28.00
2017,06,24,13,57,28.00
2017,06,24,13,58,28.10
2017,06,24,13,59,28.10
2017,06,24,14,00,28.10
2017,06,24,14,01,28.10
2017,06,24,14,02,28.20
2017,06,24,14,03,28.20
2017,06,24,14,04,28.30
2017,06,24,14,05,28.30
2017,06,24,14,06,28.40
2017,06,24,14,07,28.50
2017,06,24,14,08,28.60
2017,06,24,14,09,28.70
2017,06,24,14,10,28.80
2017,06,24,14,11,28.80
2017,06,24,14,12,28.90
2017,06,24,14,13,29.00
2017,06,24,14,14,29.00
2017,06,24,14,15,29.00
2017,06,24,14,16,29.00
2017,06,24,14,17,29.00
2017,06,24,14,18,28.90
2017,06,24,14,19,28.90
2017,06,24,14,20,28.90
2017,06,24,14,21,28.90
2017,06,24,14,22,28.90
2017,06,24,14,23,28.90
2017,06,24,14,24,29.00
2017,06,24,14,25,29.00
2017,06,24,14,26,29.10
2017,06,24,14,27,29.10
2017,06,24,14,28,29.20
2017,06,24,14,29,29.20
2017,06,24,14,30,29.20
2017,06,24,14,31,29.20
2017,06,24,14,32,29.20
2017,06,24,14,33,29.20
2017,06,24,14,34,29.20
2017,06,24,14,35,29.30
2017,06,24,14,36,29.30
2017,06,24,14,37,29.30
2017,06,24,14,38,29.30
2017,06,24,14,39,29.30
2017,06,24,14,40,29.30
2017,06,24,14,41,29.30
2017,06,24,14,42,29.40
2017,06,24,14,43,29.40
2017,06,24,14,44,29.50
2017,06,24,14,45,29.50
2017,06,24,14,46,29.60
2017,06,24,14,47,29.60
2017,06,24,14,48,29.60
2017,06,24,14,49,29.60
2017,06,24,14,50,29.60
2017,06,24,14,51,29.60
2017,06,24,14,52,29.60
2017,06,24,14,53,29.60
2017,06,24,14,54,29.60
2017,06,24,14,55,29.60
2017,06,24,14,56,29.60
2017,06,24,14,57,29.60
2017,06,24,14,58,29.60
2017,06,24,14,59,29.60
2017,06,24,15,00,29.50
2017,06,24,15,01,29.50
2017,06,24,15,02,29.50
2017,06,24,15,03,29.50
2017,06,24,15,04,29.50
2017,06,24,15,05,29.50
2017,06,24,15,06,29.50
2017,06,24,15,07,29.50
2017,06,24,15,08,29.60
2017,06,24,15,09,29.60
2017,06,24,15,10,29.60
2017,06,24,15,11,29.60
2017,06,24,15,12,29.70
2017,06,24,15,13,29.70
2017,06,24,15,14,29.70
2017,06,24,15,15,29.70
2017,06,24,15,16,29.70
2017,06,24,15,17,29.70
2017,06,24,15,18,29.70
2017,06,24,15,19,29.70
2017,06,24,15,20,29.80
2017,06,24,15,21,29.80
2017,06,24,15,22,29.80
2017,06,24,15,23,29.80
2017,06,24,15,24,29.80
2017,06,24,15,25,29.80
2017,06,24,15,26,29.80
2017,06,24,15,27,29.80
2017,06,24,15,28,29.80
2017,06,24,15,29,29.80
2017,06,24,15,30,29.80
2017,06,24,15,31,29.80
2017,06,24,15,32,29.90
2017,06,24,15,33,30.00
2017,06,24,15,34,30.00
2017,06,24,15,35,30.10
2017,06,24,15,36,30.20
2017,06,24,15,37,30.20
2017,06,24,15,38,30.20
2017,06,24,15,39,30.30
2017,06,24,15,40,30.30
2017,06,24,15,41,30.30
2017,06,24,15,42,30.30
2017,06,24,15,43,30.30
2017,06,24,15,44,30.30
2017,06,24,15,45,30.30
2017,06,24,15,46,30.30
2017,06,24,15,47,30.30
2017,06,24,15,48,30.30
2017,06,24,15,49,30.30
2017,06,24,15,50,30.30
2017,06,24,15,51,30.40
2017,06,24,15,52,30.40
2017,06,24,15,53,30.50
2017,06,24,15,54,30.60
2017,06,24,15,55,30.60
2017,06,24,15,56,30.60
2017,06,24,15,57,30.60
2017,06,24,15,58,30.70
2017,06,24,15,59,30.70
2017,06,24,16,00,30.70
2017,06,24,16,01,30.80
2017,06,24,16,02,30.80
2017,06,24,16,03,30.80
2017,06,24,16,04,30.80
2017,06,24,16,05,30.90
2017,06,24,16,06,30.90
2017,06,24,16,07,30.90
2017,06,24,16,08,30.90
2017,06,24,16,09,30.90
2017,06,24,16,10,30.90
2017,06,24,16,11,30.80
2017,06,24,16,12,30.80
2017,06,24,16,13,30.70
2017,06,24,16,14,30.70
2017,06,24,16,15,30.70
2017,06,24,16,16,30.80
2017,06,24,16,17,30.70
2017,06,24,16,18,30.70
2017,06,24,16,19,30.70
2017,06,24,16,20,30.70
2017,06,24,16,21,30.80
2017,06,24,16,22,30.80
2017,06,24,16,23,30.80
2017,06,24,16,24,30.80
2017,06,24,16,25,30.80
2017,06,24,16,26,30.80
2017,06,24,16,27,30.80
2017,06,24,16,28,30.70
2017,06,24,16,29,30.70
2017,06,24,16,30,30.70
2017,06,24,16,31,30.70
2017,06,24,16,32,30.70
2017,06,24,16,33,30.70
2017,06,24,16,34,30.70
2017,06,24,16,35,30.70
2017,06,24,16,36,30.70
2017,06,24,16,37,30.80
2017,06,24,16,38,30.80
2017,06,24,16,39,30.80
2017,06,24,16,40,30.80
2017,06,24,16,41,30.90
2017,06,24,16,42,30.90
2017,06,24,16,43,30.90
2017,06,24,16,44,30.90
2017,06,24,16,45,30.90
2017,06,24,16,46,31.00
2017,06,24,16,47,31.00
2017,06,24,16,48,31.00
2017,06,24,16,49,31.10
2017,06,24,16,50,31.10
2017,06,24,16,51,31.10
2017,06,24,16,52,31.10
2017,06,24,16,53,31.20
2017,06,24,16,54,31.20
2017,06,24,16,55,31.20
2017,06,24,16,56,31.20
2017,06,24,16,57,31.20
2017,06,24,16,58,31.20
2017,06,24,16,59,31.20
2017,06,24,17,00,31.20
2017,06,24,17,01,31.20
2017,06,24,17,02,31.20
2017,06,24,17,03,31.20
2017,06,24,17,04,31.30
2017,06,24,17,05,31.30
2017,06,24,17,06,31.30
2017,06,24,17,07,31.40
2017,06,24,17,08,31.40
2017,06,24,17,09,31.40
2017,06,24,17,10,31.40
2017,06,24,17,11,31.50
2017,06,24,17,12,31.50
2017,06,24,17,13,31.40
2017,06,24,17,14,31.40
2017,06,24,17,15,31.40
2017,06,24,17,16,31.40
2017,06,24,17,17,31.40
2017,06,24,17,18,31.40
2017,06,24,17,19,31.40